Location: Acheville
(50.3840°N, 2.8827°E)
Time: 00:57:09
(UTC+00:00)

FENGYUN 1C DEB - Pass Details

Date: 07 February 2023
Orbit: 634 x 940 km, 98.3° (Epoch: 28 March)

Event Time Altitude Azimuth Distance (km) Brightness Sun altitude
Rises 06:28:04 0° 15° (NNE) 2,947 ? -7.8°
Reaches altitude 10° 06:30:15 10° 17° (NNE) 2,036 ? -7.5°
Maximum altitude 06:34:39 76° 104° (ESE) 675 ? -6.8°
Drops below altitude 10° 06:39:11 10° 190° (S) 2,095 ? -6.1°
Sets 06:41:27 0° 192° (SSW) 3,040 ? -5.8°
